TimeEDT,TemperatureF,Dew PointF,Humidity,Sea Level PressureIn,VisibilityMPH,Wind Direction,Wind SpeedMPH,Gust SpeedMPH,PrecipitationIn,Events,Conditions,WindDirDegrees,DateUTC
12:54 AM,44.1,37.9,79,30.12,10.0,Calm,Calm,-,N/A,,Clear,0,2014-04-01 04:54:00
1:54 AM,43.0,37.0,80,30.12,10.0,Calm,Calm,-,N/A,,Clear,0,2014-04-01 05:54:00
2:54 AM,41.0,37.0,86,30.12,10.0,Calm,Calm,-,N/A,,Clear,0,2014-04-01 06:54:00
3:54 AM,41.0,37.9,89,30.12,10.0,Calm,Calm,-,N/A,,Clear,0,2014-04-01 07:54:00
4:54 AM,39.0,36.0,89,30.11,10.0,Calm,Calm,-,N/A,,Clear,0,2014-04-01 08:54:00
5:54 AM,39.9,36.0,86,30.12,10.0,Calm,Calm,-,N/A,,Clear,0,2014-04-01 09:54:00
6:54 AM,37.9,34.0,86,30.14,10.0,Calm,Calm,-,N/A,,Clear,0,2014-04-01 10:54:00
7:54 AM,44.1,39.0,82,30.16,10.0,Calm,Calm,-,N/A,,Clear,0,2014-04-01 11:54:00
8:54 AM,55.0,43.0,64,30.16,10.0,Calm,Calm,-,N/A,,Clear,0,2014-04-01 12:54:00
9:54 AM,66.0,36.0,33,30.17,10.0,South,4.6,-,N/A,,Clear,180,2014-04-01 13:54:00
10:54 AM,71.1,32.0,24,30.17,10.0,Variable,3.5,-,N/A,,Clear,0,2014-04-01 14:54:00
11:54 AM,75.0,30.9,20,30.15,10.0,SSW,6.9,-,N/A,,Clear,210,2014-04-01 15:54:00
12:54 PM,78.1,33.1,19,30.12,10.0,SW,5.8,-,N/A,,Clear,220,2014-04-01 16:54:00
1:54 PM,78.1,35.1,21,30.11,10.0,West,8.1,-,N/A,,Clear,280,2014-04-01 17:54:00
2:54 PM,77.0,33.1,20,30.08,10.0,West,5.8,-,N/A,,Clear,280,2014-04-01 18:54:00
3:54 PM,80.1,34.0,19,30.05,10.0,West,10.4,-,N/A,,Clear,270,2014-04-01 19:54:00
4:54 PM,79.0,37.9,23,30.04,10.0,SW,10.4,16.1,N/A,,Clear,220,2014-04-01 20:54:00
5:54 PM,75.9,37.0,24,30.04,10.0,SSW,10.4,-,N/A,,Clear,210,2014-04-01 21:54:00
6:54 PM,73.0,39.0,29,30.05,10.0,South,5.8,-,N/A,,Clear,180,2014-04-01 22:54:00
7:54 PM,66.0,42.1,42,30.07,10.0,South,6.9,-,N/A,,Clear,190,2014-04-01 23:54:00
8:54 PM,62.1,45.0,53,30.09,10.0,South,5.8,-,N/A,,Clear,180,2014-04-02 00:54:00
9:54 PM,59.0,46.9,64,30.10,10.0,SSW,4.6,-,N/A,,Clear,200,2014-04-02 01:54:00
10:54 PM,55.9,46.9,72,30.09,10.0,South,3.5,-,N/A,,Clear,170,2014-04-02 02:54:00
11:54 PM,57.9,46.0,65,30.09,10.0,SSW,5.8,-,N/A,,Clear,210,2014-04-02 03:54:00